Weather Service Report


542 
ASUS41 KPHI 090412
RWRPHI

REGIONAL WEATHER ROUNDUP
NATIONAL WEATHER SERVICE MOUNT HOLLY NJ
1100 PM EST MON FEB 08 2016

NOTE:  "FAIR" INDICATES FEW OR NO CLOUDS BELOW 12,000 FEET WITH NO
SIGNIFICANT WEATHER AND/OR OBSTRUCTIONS TO VISIBILITY.

 * = STATION DOES NOT REPORT PRECIPITATION (E.G. RAIN, SNOW, ETC.) 
        OR FOG.

NJZ015>026-090500-
SOUTHERN NEW JERSEY
  
CITY           SKY/WX    TMP DP  RH WIND       PRES   REMARKS
POMONA         LGT SNOW  33  31  92 E6        29.73F FOG     WCI  28  
WILDWOOD*      CLOUDY    36  30  80 E9        29.73F WCI  29          
MILLVILLE      LGT SNOW  33  31  92 E6        29.73F FOG     WCI  28  
WRIGHTSTOWN    CLOUDY    30  30  99 E5        29.72F WCI  26          
MOUNT HOLLY    LGT SNOW  31  27  85 E6        29.75F FOG     WCI  25  
TRENTON        LGT SNOW  30  27  88 E8        29.74F FOG     WCI  22  

$$
NJZ001>014-090500-
NORTHERN NEW JERSEY
  
CITY           SKY/WX    TMP DP  RH WIND       PRES   REMARKS
SUSSEX         CLOUDY    27  22  81 NE8       29.73F WCI  19          
ANDOVER*         N/A     28  23  81 VRB3      29.72F                  
MORRISTOWN     CLOUDY    28  23  80 E5        29.76F WCI  23          
NEWARK         LGT SNOW  30  25  81 NE7       29.77F WCI  23          
TETERBORO      FLURRIES  29  23  78 E5        29.77F WCI  24          
CALDWELL       CLOUDY    28  22  78 E10       29.77F WCI  19          
SOMERVILLE     CLOUDY    31  23  72 VRB7      29.74F WCI  24          
ALLAIRE*       CLOUDY    30  21  69 E9        29.74F WCI  22          
TOMS RIVER*    CLOUDY    30  27  86 E5        29.75F WCI  25          

$$
PAZ043-044-047-054-055-060>062-066>071-090500-
EASTERN PENNSYLVANIA
  
CITY           SKY/WX    TMP DP  RH WIND       PRES   REMARKS
PHILADELPHIA   LGT SNOW  32  28  85 E7        29.74F FOG     WCI  26  
NORTH PHILA    CLOUDY    32  28  85 E9        29.76F WCI  24          
BLUE BELL*       N/A     30  28  93 E3        29.72F                  
DOYLESTOWN     LGT SNOW  29  26  89 CALM      29.72F FOG              
QUAKERTOWN*    CLOUDY    32  28  86 SE6       29.73S WCI  26          
POTTSTOWN      LGT SNOW  30  28  92 E6        29.73F FOG     WCI  24  
LANCASTER      LGT SNOW  32  32 100 E10       29.69S VSB 3/4 WCI  24  
COATESVILLE    LGT SNOW  30  32 100 E10       29.70F WCI  21          
READING        LGT SNOW  32  29  88 SE7       29.70F FOG     WCI  26  
ALLENTOWN      LGT SNOW  32  26  78 SE5       29.73R WCI  27          
MOUNT POCONO   CLOUDY    24  17  74 E10       29.63F WCI  14          
HAZLETON       LGT SNOW  30  23  74 SE8G16    29.66F WCI  23          
LEHIGHTON      LGT SNOW  32  28  86 CALM      29.72S                  
WILKES BARRE   CLOUDY    32  17  54 VRB5      29.66R WCI  27          

$$
DEZALL-MDZ008-012-015-019-020-090500-
DELAWARE AND EASTERN MARYLAND
  
CITY           SKY/WX    TMP DP  RH WIND       PRES   REMARKS
WILMINGTON     LGT SNOW  32  30  92 E9        29.73F FOG     WCI  24  
DOVER          CLOUDY    36  36 100 E12       29.70F WCI  27          
GEORGETOWN     CLOUDY    35  34  96 E6        29.71F WCI  30          
EASTON         CLOUDY    37  37 100 SE7       29.74S WCI  31          
PATUXENT       CLOUDY    39  34  82 SE8       29.68F WCI  33          
OCEAN CITY     MOCLDY    39  34  82 E9        29.71F WCI  33          
WALLOPS ISLAND FAIR      39  35  86 E7        29.70F WCI  34          
CAMBRIDGE      PTCLDY    34  32  93 E6        29.69F WCI  29          
SALISBURY      CLOUDY    35  34  96 E5        29.69F WCI  31          

$$
PAZ001-021-NYZ056-072-MDZ011-DCZ001-090500-
OTHER NEARBY LOCATIONS
  
CITY           SKY/WX    TMP DP  RH WIND       PRES   REMARKS
HARRISBURG     LGT SNOW  34  32  92 E6        29.67F WCI  29          
STATE COLLEGE  CLOUDY    33  29  85 CALM      29.60F                  
WILLIAMSPORT   FLURRIES  34  30  85 SE9       29.65F WCI  27          
BINGHAMTON     CLOUDY    29  19  66 SE14      29.60F WCI  18          
NEW YORK CITY  CLOUDY    29  22  75 NE8       29.79F WCI  21          
BALTIMORE      LGT RAIN  37  34  89 SE10      29.68F WCI  30          
WASHINGTON DC  LGT RAIN  39  34  82 SE7       29.68F WCI  34          

$$
  

Return to Home page


Western Regional Climate Center, wrcc@dri.edu